P/2019 Y3 ( Catalina ) 2025

Japanese version
Home page
Updated on September 5, 2024

---------------------------------------------------------------------

* Profile

* Orbital Elements

Epoch 2025 Feb. 14.0 TT = JDT 2460720.5                                         
T 2025 Mar. 3.12637 TT                                  Bell                    
q   0.9310264            (2000.0)            P               Q                  
n   0.18819076     Peri.    2.54858     -0.78382420     -0.55861726             
a   3.0158092      Node   139.30657     +0.56212978     -0.82387888             
e   0.6912847      Incl.   24.58177     +0.26387445     +0.09576193             
P   5.24                                                                        
From 85 observations 2019 Dec. 17-2020 Jan. 27, mean residual 0".7.             

* Finding Charts

* Magnitudes Graph

        m1 = 18.5 + 5 log d + 10.0 log r

---------------------------------------------------------------------

The orbital elements are published on M.P.E.C. 2020-C98.
The charts are made with StellaNavigator Ver.11 (AstroArts).
The magnitudes graphs are made with Comet for Windows.

---------------------------------------------------------------------

Copyright(C) Seiichi Yoshida (comet@aerith.net). All rights reserved.